�N����,����,�~����,�C��,���x,�C��,����,���ϕ���,�ő�u�ԕ���,�ő厞����,���˗�,�I�_���x,�n�����x,�ő啗���N��,DTYPE
"18/10/22","00:10",0.0,11.8,88.6,1016.8,325.5,1.7,3.2,329.7,0.00,10.0,16.5,"00:06:02",1
"18/10/22","00:20",0.0,11.6,89.1,1016.6,346.3,1.2,2.7,327.5,0.00,9.9,16.2,"00:11:32",1
"18/10/22","00:30",0.0,11.2,89.9,1016.8,310.2,1.3,2.8,334.5,0.00,9.6,16.5,"00:25:52",1
"18/10/22","00:40",0.0,11.4,90.4,1016.4,322.3,1.7,2.9,326.9,0.00,9.9,16.5,"00:37:20",1
"18/10/22","00:50",0.0,11.3,90.8,1016.4,302.4,1.7,3.1,333.1,0.00,9.9,16.4,"00:45:54",1
"18/10/22","01:00",0.0,11.1,91.1,1016.4,300.0,1.7,2.7,309.1,0.00,9.7,16.4,"00:58:00",1
"18/10/22","01:10",0.0,11.2,91.4,1016.1,316.7,2.1,3.5,336.5,0.00,9.9,16.3,"01:06:40",1
"18/10/22","01:20",0.0,11.2,91.7,1016.1,323.8,2.3,3.1,344.9,0.00,9.9,16.1,"01:18:16",1
"18/10/22","01:30",0.0,11.5,91.6,1016.1,325.4,3.0,4.3,308.0,0.00,10.2,16.1,"01:23:36",1
"18/10/22","01:40",0.0,11.6,91.2,1016.1,329.4,3.0,4.2,341.2,0.00,10.3,16.1,"01:32:56",1
"18/10/22","01:50",0.0,11.7,91.2,1016.1,329.9,2.5,3.5,334.9,0.00,10.4,16.2,"01:47:18",1
"18/10/22","02:00",0.0,11.8,90.7,1016.1,326.9,3.0,4.1,336.4,0.00,10.4,16.1,"01:55:04",1
"18/10/22","02:10",0.0,11.6,90.2,1016.1,324.2,2.5,3.6,328.3,0.00,10.1,16.1,"02:03:58",1
"18/10/22","02:20",0.0,11.5,90.3,1016.6,321.8,2.7,3.7,315.5,0.00,10.0,16.3,"02:15:22",1
"18/10/22","02:30",0.0,11.3,90.4,1016.1,327.1,2.6,3.7,334.2,0.00,9.8,15.9,"02:29:50",1
"18/10/22","02:40",0.0,11.2,90.8,1016.4,320.4,2.5,3.7,315.8,0.00,9.8,16.0,"02:37:28",1
"18/10/22","02:50",0.0,11.0,91.2,1016.6,297.5,1.6,2.4,306.3,0.00,9.7,15.9,"02:46:34",1
"18/10/22","03:00",0.0,11.2,91.6,1016.4,318.3,2.5,4.0,333.3,0.00,9.9,15.9,"02:54:40",1
"18/10/22","03:10",0.0,11.2,91.2,1016.4,323.7,2.6,3.6,331.7,0.00,9.9,15.9,"03:06:42",1
"18/10/22","03:20",0.0,11.0,91.3,1016.6,327.3,2.5,3.5,338.9,0.00,9.7,16.0,"03:17:12",1
"18/10/22","03:30",0.0,10.8,91.5,1016.4,327.6,2.3,3.2,335.1,0.00,9.5,15.9,"03:20:24",1
"18/10/22","03:40",0.0,10.7,92.1,1016.4,319.1,2.3,3.5,322.5,0.00,9.5,15.7,"03:35:44",1
"18/10/22","03:50",0.0,10.8,92.3,1016.4,316.0,2.2,3.5,309.7,0.00,9.6,16.0,"03:42:48",1
"18/10/22","04:00",0.0,10.8,92.1,1016.4,321.9,2.6,3.4,322.5,0.00,9.6,15.7,"03:58:18",1
"18/10/22","04:10",0.0,10.8,92.3,1016.4,324.1,2.5,3.6,318.9,0.00,9.6,15.7,"04:03:52",1
"18/10/22","04:20",0.0,10.9,92.2,1016.6,327.2,2.8,4.5,324.0,0.00,9.7,15.7,"04:16:32",1
"18/10/22","04:30",0.0,10.8,92.2,1016.8,328.6,2.6,4.7,347.8,0.00,9.6,15.8,"04:20:56",1
"18/10/22","04:40",0.0,10.7,92.4,1016.8,326.0,2.5,3.9,317.0,0.00,9.6,15.7,"04:30:02",1
"18/10/22","04:50",0.0,10.6,92.3,1017.1,320.7,2.5,3.7,335.4,0.00,9.4,15.5,"04:40:56",1
"18/10/22","05:00",0.0,10.5,92.3,1016.8,320.3,2.2,3.4,318.0,0.00,9.3,15.6,"04:50:16",1
"18/10/22","05:10",0.0,10.2,92.4,1016.8,306.3,1.8,2.8,329.7,0.00,9.1,15.7,"05:03:28",1
"18/10/22","05:20",0.0,10.1,93.3,1016.8,292.3,1.5,2.2,330.9,0.00,9.1,15.6,"05:12:24",1
"18/10/22","05:30",0.0,9.7,93.5,1016.8,291.1,1.3,2.0,292.5,0.00,8.7,15.6,"05:27:20",1
"18/10/22","05:40",0.0,9.3,93.4,1017.3,293.4,1.2,1.4,309.7,0.00,8.3,15.7,"05:38:08",1
"18/10/22","05:50",0.0,9.3,94.7,1016.6,296.6,1.5,2.5,313.3,0.00,8.5,15.4,"05:46:16",1
"18/10/22","06:00",0.0,9.3,94.5,1017.1,287.6,1.3,1.8,304.9,0.00,8.5,15.4,"05:54:24",1
"18/10/22","06:10",0.0,9.1,94.6,1016.8,291.3,1.5,1.9,317.6,0.00,8.3,15.5,"06:04:16",1
"18/10/22","06:20",0.0,9.0,94.8,1017.1,317.4,1.7,2.5,320.7,0.00,8.3,15.3,"06:18:16",1
"18/10/22","06:30",0.0,9.0,95.8,1017.3,301.5,1.3,2.5,322.6,0.00,8.4,15.5,"06:20:24",1
"18/10/22","06:40",0.0,8.9,95.5,1017.3,306.6,1.2,1.7,320.1,0.00,8.3,15.0,"06:30:48",1
"18/10/22","06:50",0.0,8.9,95.3,1017.3,301.4,1.2,2.7,317.0,0.00,8.2,15.3,"06:49:20",1
"18/10/22","07:00",0.0,9.1,95.7,1017.5,315.0,1.7,2.1,318.9,0.00,8.5,15.1,"06:52:16",1
"18/10/22","07:10",0.0,9.7,96.1,1017.8,290.1,1.0,1.2,287.9,0.00,9.1,15.2,"07:00:08",1
"18/10/22","07:20",0.0,10.3,95.7,1017.3,302.7,1.0,1.7,323.8,0.01,9.7,15.2,"07:19:44",1
"18/10/22","07:30",0.0,11.2,94.7,1017.8,298.6,0.8,1.3,324.9,0.02,10.4,15.2,"07:20:08",1
"18/10/22","07:40",0.0,11.5,93.2,1018.0,293.4,0.5,1.7,330.2,0.03,10.5,15.0,"07:31:20",1
"18/10/22","07:50",0.0,12.4,91.4,1018.2,303.9,1.0,1.6,329.0,0.05,11.1,15.0,"07:46:56",1
"18/10/22","08:00",0.0,12.9,88.0,1018.2,320.1,0.7,1.2,313.9,0.07,11.0,15.2,"07:52:08",1
"18/10/22","08:10",0.0,13.3,87.0,1018.7,324.9,0.8,1.6,332.4,0.10,11.2,15.4,"08:07:44",1
"18/10/22","08:20",0.0,13.6,87.3,1019.0,344.7,0.5,1.1,309.3,0.12,11.6,15.3,"08:10:02",1
"18/10/22","08:30",0.0,13.9,86.2,1019.0,277.1,0.6,1.3,313.2,0.15,11.7,15.4,"08:21:44",1
"18/10/22","08:40",0.0,14.1,84.7,1019.4,263.7,0.5,1.1,302.9,0.18,11.6,15.4,"08:38:32",1
"18/10/22","08:50",0.0,14.8,83.6,1018.7,315.9,0.3,1.0,281.4,0.20,12.1,15.7,"08:40:08",1
"18/10/22","09:00",0.0,14.9,81.9,1018.7,243.1,0.7,1.7,241.5,0.23,11.9,15.7,"08:59:36",1
"18/10/22","09:10",0.0,15.9,80.4,1018.7,245.7,0.5,1.4,229.4,0.25,12.6,15.9,"09:05:12",1
"18/10/22","09:20",0.0,16.5,77.3,1018.5,246.1,0.6,1.8,228.0,0.28,12.6,16.1,"09:14:40",1
"18/10/22","09:30",0.0,16.7,75.4,1018.2,209.5,0.7,1.7,194.1,0.30,12.4,16.0,"09:23:20",1
"18/10/22","09:40",0.0,17.2,74.8,1018.0,191.9,0.6,1.8,217.8,0.32,12.7,16.2,"09:30:32",1
"18/10/22","09:50",0.0,17.6,73.1,1017.5,246.5,0.6,2.4,227.1,0.35,12.8,16.2,"09:45:52",1
"18/10/22","10:00",0.0,18.4,71.0,1017.5,64.6,0.6,1.7,22.3,0.37,13.1,16.6,"09:55:52",1
"18/10/22","10:10",0.0,18.7,69.8,1017.3,201.9,0.7,1.8,235.3,0.38,13.1,16.8,"10:04:32",1
"18/10/22","10:20",0.0,18.4,67.9,1017.5,240.2,0.8,1.9,322.9,0.40,12.4,16.7,"10:19:12",1
"18/10/22","10:30",0.0,19.0,67.1,1017.1,329.7,1.2,2.0,2.2,0.42,12.8,17.1,"10:21:04",1
"18/10/22","10:40",0.0,19.6,65.7,1016.8,260.9,0.5,1.3,315.5,0.43,13.1,17.2,"10:30:08",1
"18/10/22","10:50",0.0,19.6,63.1,1016.6,73.5,1.0,2.4,19.9,0.45,12.4,17.4,"10:47:44",1
"18/10/22","11:00",0.0,19.8,61.5,1016.8,135.1,0.8,2.0,55.2,0.46,12.2,17.5,"10:53:12",1
"18/10/22","11:10",0.0,20.4,61.6,1016.4,292.3,0.8,1.7,350.6,0.45,12.8,17.9,"11:01:44",1
"18/10/22","11:20",0.0,20.3,59.1,1016.4,320.7,0.7,1.7,11.5,0.48,12.1,18.0,"11:13:36",1
"18/10/22","11:30",0.0,20.9,57.9,1016.1,111.5,0.8,2.5,110.1,0.48,12.3,18.2,"11:21:44",1
"18/10/22","11:40",0.0,21.1,58.4,1016.4,142.5,0.7,1.7,61.5,0.49,12.7,18.2,"11:33:04",1
"18/10/22","11:50",0.0,21.3,55.3,1015.6,172.9,1.5,3.2,210.1,0.50,12.0,18.5,"11:42:08",1
"18/10/22","12:00",0.0,21.8,52.7,1015.4,147.9,1.1,2.7,186.4,0.49,11.8,18.7,"11:59:52",1
"18/10/22","12:10",0.0,21.8,49.6,1014.9,133.3,0.8,2.4,132.3,0.48,10.8,18.9,"12:03:36",1
"18/10/22","12:20",0.0,22.2,44.7,1014.9,121.1,1.3,2.8,94.1,0.43,9.7,18.9,"12:12:24",1
"18/10/22","12:30",0.0,22.5,41.0,1014.7,83.9,1.0,3.6,108.4,0.51,8.6,19.2,"12:20:08",1
"18/10/22","12:40",0.0,22.7,38.7,1014.7,97.8,1.0,2.6,135.0,0.50,8.0,19.3,"12:33:44",1
"18/10/22","12:50",0.0,22.7,42.3,1014.5,152.7,1.2,2.6,205.1,0.47,9.3,19.3,"12:44:08",1
"18/10/22","13:00",0.0,22.6,38.9,1013.8,166.3,1.5,2.7,146.0,0.45,8.0,19.5,"12:53:36",1
"18/10/22","13:10",0.0,22.6,39.3,1014.0,205.5,1.5,3.3,214.3,0.45,8.1,19.7,"13:04:48",1
"18/10/22","13:20",0.0,22.3,44.1,1014.2,192.1,1.1,2.5,189.3,0.31,9.5,20.0,"13:12:00",1
"18/10/22","13:30",0.0,22.3,42.4,1013.8,176.5,1.3,3.2,131.5,0.37,9.0,19.8,"13:27:20",1
"18/10/22","13:40",0.0,22.6,41.3,1013.8,172.5,0.5,1.0,238.3,0.25,8.8,19.9,"13:36:08",1
"18/10/22","13:50",0.0,22.7,40.5,1014.0,242.4,0.8,2.8,201.0,0.33,8.6,20.0,"13:45:28",1
"18/10/22","14:00",0.0,23.2,44.0,1013.5,218.6,1.5,3.7,231.0,0.39,10.3,19.9,"13:51:28",1
"18/10/22","14:10",0.0,22.7,41.2,1013.0,164.6,1.0,3.5,204.2,0.31,8.9,20.1,"14:08:32",1
"18/10/22","14:20",0.0,22.7,40.6,1013.5,230.6,1.1,2.4,221.8,0.18,8.7,19.9,"14:10:24",1
"18/10/22","14:30",0.0,22.2,40.6,1013.8,201.5,1.0,2.1,180.6,0.22,8.2,20.0,"14:28:24",1
"18/10/22","14:40",0.0,23.3,38.7,1014.0,162.7,0.7,1.8,206.3,0.27,8.5,19.9,"14:31:28",1
"18/10/22","14:50",0.0,23.1,34.6,1014.0,226.7,1.6,3.9,218.1,0.31,6.7,20.2,"14:41:20",1
"18/10/22","15:00",0.0,23.0,34.3,1013.8,270.6,1.0,2.1,223.5,0.22,6.5,20.0,"14:51:36",1
"18/10/22","15:10",0.0,23.4,36.4,1013.5,205.8,0.8,2.5,222.7,0.26,7.7,20.4,"15:08:00",1
"18/10/22","15:20",0.0,23.2,34.0,1013.5,218.5,1.0,2.2,231.1,0.21,6.5,20.3,"15:18:24",1
"18/10/22","15:30",0.0,22.9,34.3,1013.5,204.4,1.1,2.8,203.9,0.15,6.4,20.2,"15:29:12",1
"18/10/22","15:40",0.0,22.3,36.3,1013.5,239.8,0.7,1.9,227.8,0.10,6.7,20.3,"15:30:08",1
"18/10/22","15:50",0.0,21.8,41.2,1013.8,222.9,0.6,2.0,202.7,0.07,8.1,20.2,"15:45:12",1
"18/10/22","16:00",0.0,21.9,43.9,1013.8,250.1,0.7,1.3,237.9,0.06,9.1,20.2,"15:55:44",1
"18/10/22","16:10",0.0,21.3,47.2,1014.0,302.8,1.1,2.0,337.1,0.05,9.6,19.9,"16:03:52",1
"18/10/22","16:20",0.0,20.6,51.7,1014.0,292.3,0.8,1.3,325.5,0.04,10.4,19.9,"16:12:00",1
"18/10/22","16:30",0.0,20.0,55.4,1014.2,296.3,0.8,1.2,281.9,0.04,10.8,19.8,"16:24:24",1
"18/10/22","16:40",0.0,19.6,57.6,1013.8,295.5,0.7,1.3,328.2,0.03,11.1,19.7,"16:30:16",1
"18/10/22","16:50",0.0,19.3,59.1,1014.5,299.7,0.5,1.0,325.5,0.02,11.2,19.7,"16:41:12",1
"18/10/22","17:00",0.0,18.8,60.9,1014.5,280.9,0.5,1.3,288.8,0.01,11.1,19.5,"16:56:32",1
"18/10/22","17:10",0.0,18.4,61.1,1014.7,293.4,0.7,1.3,324.8,0.00,10.8,19.4,"17:02:00",1
"18/10/22","17:20",0.0,18.2,61.2,1014.9,268.5,1.0,1.9,252.5,0.00,10.7,19.4,"17:10:02",1
"18/10/22","17:30",0.0,17.9,62.5,1014.7,291.6,1.0,1.4,307.8,0.00,10.7,19.2,"17:21:52",1
"18/10/22","17:40",0.0,17.3,64.2,1014.9,276.4,0.8,1.6,277.2,0.00,10.5,19.3,"17:38:24",1
"18/10/22","17:50",0.0,17.1,65.3,1015.2,278.2,1.1,2.0,251.3,0.00,10.6,19.2,"17:41:44",1
"18/10/22","18:00",0.0,16.8,66.3,1015.2,297.2,0.8,1.6,316.2,0.00,10.5,18.9,"17:59:04",1
"18/10/22","18:10",0.0,16.4,67.4,1015.6,315.4,1.1,1.8,345.6,0.00,10.4,18.9,"18:02:16",1
"18/10/22","18:20",0.0,16.0,70.9,1015.9,298.1,1.0,1.7,293.0,0.00,10.8,18.8,"18:15:28",1
"18/10/22","18:30",0.0,15.9,71.7,1015.6,284.7,0.8,1.3,290.0,0.00,10.8,18.6,"18:29:44",1
"18/10/22","18:40",0.0,15.8,73.0,1016.1,300.3,1.0,1.6,308.6,0.00,11.0,18.7,"18:37:44",1
"18/10/22","18:50",0.0,15.8,73.7,1015.9,315.6,1.1,1.8,323.3,0.00,11.2,18.4,"18:46:32",1
"18/10/22","19:00",0.0,15.5,75.9,1016.1,313.4,0.7,1.6,330.6,0.00,11.3,18.4,"18:54:16",1
"18/10/22","19:10",0.0,15.3,76.7,1016.4,286.9,0.7,1.2,313.5,0.00,11.3,18.3,"19:06:56",1
"18/10/22","19:20",0.0,15.0,77.8,1016.1,298.7,0.8,1.2,313.9,0.00,11.2,18.1,"19:13:36",1
"18/10/22","19:30",0.0,14.7,78.8,1016.4,312.9,1.0,1.6,318.7,0.00,11.1,18.1,"19:26:56",1
"18/10/22","19:40",0.0,14.3,82.6,1016.4,301.7,0.7,1.0,322.7,0.00,11.4,18.2,"19:37:20",1
"18/10/22","19:50",0.0,14.3,84.1,1016.6,324.1,1.0,1.6,329.0,0.00,11.7,17.8,"19:48:00",1
"18/10/22","20:00",0.0,14.1,85.2,1016.6,299.5,0.6,1.1,286.7,0.00,11.7,17.8,"19:52:48",1
"18/10/22","20:10",0.0,14.0,85.5,1016.6,297.0,0.8,1.6,335.5,0.00,11.6,17.7,"20:06:12",1
"18/10/22","20:20",0.0,13.9,86.5,1016.6,313.2,0.8,1.3,324.8,0.00,11.7,17.8,"20:12:56",1
"18/10/22","20:30",0.0,13.7,88.4,1016.8,273.3,0.6,0.9,262.5,0.00,11.9,17.7,"20:23:36",1
"18/10/22","20:40",0.0,14.1,88.7,1016.8,297.9,1.0,1.4,300.3,0.00,12.3,17.7,"20:34:32",1
"18/10/22","20:50",0.0,14.2,87.6,1016.6,308.4,0.6,1.2,312.6,0.00,12.2,17.4,"20:41:44",1
"18/10/22","21:00",0.0,14.3,88.7,1017.1,283.8,0.8,1.4,329.6,0.00,12.5,17.4,"20:54:32",1
"18/10/22","21:10",0.0,14.6,87.6,1017.1,288.8,1.0,1.7,319.9,0.00,12.6,17.2,"21:08:32",1
"18/10/22","21:20",0.0,14.8,87.4,1017.3,322.9,0.8,1.6,311.5,0.00,12.8,17.4,"21:10:08",1
"18/10/22","21:30",0.0,14.9,86.3,1017.3,319.5,1.1,1.9,309.3,0.00,12.7,17.4,"21:22:16",1
"18/10/22","21:40",0.0,14.7,86.4,1016.8,311.4,0.6,1.2,313.5,0.00,12.5,17.3,"21:39:44",1
"18/10/22","21:50",0.0,14.5,86.4,1017.3,294.2,0.8,1.4,310.0,0.00,12.3,17.3,"21:41:20",1
"18/10/22","22:00",0.0,14.2,87.3,1017.1,298.5,0.8,1.3,320.4,0.00,12.2,17.1,"21:58:40",1
"18/10/22","22:10",0.0,14.2,88.5,1017.1,313.4,1.0,1.2,306.2,0.00,12.4,17.2,"22:04:24",1
"18/10/22","22:20",0.0,14.0,88.8,1017.1,313.7,1.0,1.6,324.0,0.00,12.2,17.2,"22:19:44",1
"18/10/22","22:30",0.0,13.8,89.5,1017.1,308.4,1.0,1.4,321.7,0.00,12.1,17.1,"22:20:24",1
"18/10/22","22:40",0.0,13.7,89.8,1017.1,296.0,0.7,1.0,311.7,0.00,12.1,17.2,"22:31:28",1
"18/10/22","22:50",0.0,13.7,90.0,1017.1,317.3,0.8,1.4,325.3,0.00,12.1,17.1,"22:48:48",1
"18/10/22","23:00",0.0,13.4,89.4,1017.1,309.0,0.8,1.6,322.6,0.00,11.7,17.0,"22:51:52",1
"18/10/22","23:10",0.0,13.2,91.0,1016.8,297.9,1.0,1.4,310.4,0.00,11.8,16.9,"23:07:16",1
"18/10/22","23:20",0.0,13.2,91.6,1017.1,307.7,1.2,2.1,330.6,0.00,11.9,16.8,"23:18:24",1
"18/10/22","23:30",0.0,13.3,90.3,1016.8,316.2,1.0,2.0,327.9,0.00,11.8,16.9,"23:20:24",1
"18/10/22","23:40",0.0,12.8,90.6,1016.6,307.2,1.1,1.6,321.7,0.00,11.3,16.8,"23:34:10",1
"18/10/22","23:50",0.0,12.5,91.1,1016.8,299.5,1.2,1.7,320.7,0.00,11.1,16.7,"23:47:44",1
"18/10/22","24:00",0.0,12.4,92.2,1016.6,304.0,1.3,1.9,317.4,0.00,11.2,16.6,"23:55:32",1
